Flag for USA

Past Weather in 34°08'33.1"N, 118°42'15.8"W, USA — Yesterday and Last 2 Weeks

Currently: 60 °F. Clear. (Weather station: Van Nuys Airport, USA). See more current weather

Past Weather in 34°08'33.1"N, 118°42'15.8"W — Graph

°F

34°08'33.1"N, 118°42'15.8"W Temperature Yesterday

Maximum temperature yesterday: 77 °F (at 1:51 pm)
Minimum temperature yesterday: 48 °F (at 6:51 am)
Average temperature yesterday: 63 °F

High & Low Weather Summary for the Past Weeks

 TemperatureHumidityPressure
High80 °F (Feb 22, 1:51 pm)90% (Feb 12, 5:51 am)30.30 "Hg (Feb 12, 5:51 am)
Low44 °F (Feb 19, 4:51 am)5% (Feb 25, 10:51 am)29.78 "Hg (Feb 13, 3:51 pm)
Average60 °F37%30.03 "Hg
* Reported Feb 10 10:51 pm — Feb 25 10:51 pm, 34°08'33.1"N, 118°42'15.8"W. Weather by CustomWeather, © 2021

Note: Actual official high and low records may vary slightly from our data, if they occured in-between our weather recording intervals... More about our weather records

34°08'33.1"N, 118°42'15.8"W Weather History for the Previous 24 Hours

Scroll right to see more
 ConditionsComfort  
Time TempWeatherWind HumidityBarometerVisibility
10:51 pm
Thu, Feb 25
60 °FClear.20 mph6%30.04 "Hg10 mi
9:51 pm59 °FClear.16 mph7%30.06 "Hg10 mi
8:51 pm61 °FClear.14 mph6%30.03 "Hg10 mi
7:51 pm62 °FClear.15 mph6%30.03 "Hg10 mi
6:51 pm63 °FClear.20 mph6%30.02 "Hg10 mi
5:51 pm64 °FClear.15 mph6%30.00 "Hg10 mi
4:51 pm68 °FSunny.17 mph5%30.00 "Hg10 mi
3:51 pm70 °FSunny.22 mph5%30.01 "Hg10 mi
2:51 pm71 °FSunny.21 mph6%30.02 "Hg10 mi
1:51 pm70 °FSunny.21 mph5%30.03 "Hg10 mi
12:51 pm69 °FSunny.20 mph6%30.06 "Hg10 mi
11:51 am67 °FSunny.29 mph6%30.09 "Hg10 mi
10:51 am66 °FSunny.30 mph5%30.11 "Hg10 mi
9:51 am63 °FSunny.26 mph7%30.11 "Hg10 mi
8:51 am61 °FSunny.25 mph7%30.12 "Hg10 mi
7:51 am58 °FSunny.23 mph9%30.11 "Hg10 mi
6:51 am56 °FSunny.21 mph10%30.10 "Hg10 mi
5:51 am56 °FClear.25 mph11%30.09 "Hg10 mi
4:51 am56 °FClear.17 mph12%30.08 "Hg10 mi
3:51 am58 °FClear.20 mph12%30.06 "Hg10 mi
2:51 am59 °FPassing clouds.20 mph11%30.05 "Hg10 mi
1:51 am61 °FClear.20 mph23%30.04 "Hg10 mi
12:51 am62 °FClear.14 mph21%30.03 "Hg10 mi
11:51 pm
Wed, Feb 24
63 °FClear.17 mph23%30.03 "Hg10 mi
Weather by CustomWeather, © 2021

See weather overview